,,PA_Meas_PMT16A,,PR_Meas_QMR101_102,,RH_Meas_QMH101,,SR_Meas_QMS101,,TA_Meas_QMH101,,GenWind,,GenWind,
time,status,PA,status,PR,status,RH,status,SR,status,TA,status,DirAvg,status,SpdAvg,
2010-04-02, 00:00:05,VALID,918.242,VALID,0,VALID,88.5612,VALID,0,VALID,21.4567,VALID,96,VALID,1.58555,
2010-04-02, 00:01:05,VALID,918.268,VALID,0,VALID,88.6451,VALID,0,VALID,21.4177,VALID,127,VALID,1.25273,
2010-04-02, 00:02:05,VALID,918.267,VALID,0,VALID,88.8585,VALID,0,VALID,21.3786,VALID,119,VALID,1.44609,
2010-04-02, 00:03:05,VALID,918.266,VALID,0,VALID,88.8357,VALID,0,VALID,21.3591,VALID,135,VALID,2.19141,
2010-04-02, 00:04:05,VALID,918.254,VALID,0,VALID,89.011,VALID,0,VALID,21.3591,VALID,114,VALID,1.75039,
2010-04-02, 00:05:05,VALID,918.297,VALID,0,VALID,89.1406,VALID,0,VALID,21.3201,VALID,137,VALID,1.43203,
2010-04-02, 00:06:05,VALID,918.278,VALID,0,VALID,89.2168,VALID,0,VALID,21.3201,VALID,125,VALID,1.47539,
2010-04-02, 00:07:05,VALID,918.29,VALID,0,VALID,89.1863,VALID,0,VALID,21.3608,VALID,131,VALID,0.880469,
2010-04-02, 00:08:05,VALID,918.281,VALID,0,VALID,89.1787,VALID,0,VALID,21.3803,VALID,111,VALID,1.40625,
2010-04-02, 00:09:05,VALID,918.31,VALID,0,VALID,89.3922,VALID,0,VALID,21.3412,VALID,140,VALID,0.774219,
2010-04-02, 00:10:05,VALID,918.287,VALID,0,VALID,89.3388,VALID,0,VALID,21.3412,VALID,110,VALID,1.40859,
2010-04-02, 00:11:05,VALID,918.313,VALID,0,VALID,89.4074,VALID,0,VALID,21.3412,VALID,110,VALID,1.05234,
2010-04-02, 00:12:05,VALID,918.298,VALID,0,VALID,89.3083,VALID,0,VALID,21.3006,VALID,110,VALID,1.71523,
2010-04-02, 00:13:05,VALID,918.306,VALID,0,VALID,89.4379,VALID,0,VALID,21.3201,VALID,131,VALID,0.909766,
2010-04-02, 00:14:05,VALID,918.307,VALID,0,VALID,89.4455,VALID,0,VALID,21.3412,VALID,139,VALID,1.79961,
2010-04-02, 00:15:05,VALID,918.294,VALID,0,VALID,89.6056,VALID,0,VALID,21.3412,VALID,118,VALID,0.599219,
2010-04-02, 00:16:05,VALID,918.305,VALID,0,VALID,89.6133,VALID,0,VALID,21.3006,VALID,118,VALID,1.06484,
2010-04-02, 00:17:05,VALID,918.291,VALID,0,VALID,89.8343,VALID,0,VALID,21.3022,VALID,118,VALID,1.17305,
2010-04-02, 00:18:05,VALID,918.303,VALID,0,VALID,89.842,VALID,0.107441,VALID,21.2811,VALID,118,VALID,0.735937,
2010-04-02, 00:19:05,VALID,918.328,VALID,0,VALID,89.9792,VALID,0,VALID,21.2827,VALID,118,VALID,1.18281,
2010-04-02, 00:20:05,VALID,918.308,VALID,0,VALID,90.1698,VALID,0,VALID,21.2827,VALID,118,VALID,0.735547,
2010-04-02, 00:21:05,VALID,918.301,VALID,0,VALID,90.2308,VALID,0,VALID,21.2632,VALID,118,VALID,0.964453,
2010-04-02, 00:22:05,VALID,918.297,VALID,0,VALID,90.2612,VALID,0,VALID,21.2632,VALID,118,VALID,0.782812,
2010-04-02, 00:23:05,VALID,918.281,VALID,0,VALID,90.3985,VALID,0,VALID,21.2226,VALID,118,VALID,0.843359,
2010-04-02, 00:24:05,VALID,918.286,VALID,0,VALID,90.5128,VALID,0,VALID,21.2031,VALID,117,VALID,0.952734,
2010-04-02, 00:25:05,VALID,918.26,VALID,0,VALID,90.65,VALID,0,VALID,21.2242,VALID,117,VALID,1.22734,
2010-04-02, 00:26:05,VALID,918.265,VALID,0,VALID,90.8178,VALID,0,VALID,21.1836,VALID,117,VALID,0.701563,
2010-04-02, 00:27:05,VALID,918.25,VALID,0,VALID,90.6119,VALID,0,VALID,21.2242,VALID,117,VALID,1.47969,
2010-04-02, 00:28:05,VALID,918.259,VALID,0,VALID,90.7263,VALID,0,VALID,21.2226,VALID,115,VALID,1.87773,
2010-04-02, 00:29:05,VALID,918.25,VALID,0,VALID,90.7873,VALID,0,VALID,21.2437,VALID,137,VALID,1.41406,
2010-04-02, 00:30:05,VALID,918.209,VALID,0,VALID,90.8025,VALID,0,VALID,21.2632,VALID,137,VALID,0.808203,
2010-04-02, 00:31:05,VALID,918.178,VALID,0,VALID,90.9016,VALID,0,VALID,21.2226,VALID,89,VALID,1.23867,
2010-04-02, 00:32:05,VALID,918.207,VALID,0,VALID,90.955,VALID,0,VALID,21.2242,VALID,108,VALID,1.27383,
2010-04-02, 00:33:05,VALID,918.158,VALID,0,VALID,91.0693,VALID,0,VALID,21.2242,VALID,117,VALID,1.26484,
2010-04-02, 00:34:05,VALID,918.137,VALID,0,VALID,91.1456,VALID,0,VALID,21.2047,VALID,117,VALID,1.38828,
2010-04-02, 00:35:05,VALID,918.135,VALID,0,VALID,91.1608,VALID,0,VALID,21.1852,VALID,119,VALID,1.52852,
2010-04-02, 00:36:05,VALID,918.112,VALID,0,VALID,91.1227,VALID,0,VALID,21.2047,VALID,119,VALID,1.10625,
2010-04-02, 00:37:05,VALID,918.096,VALID,0,VALID,91.1151,VALID,0,VALID,21.2047,VALID,133,VALID,1.02852,
2010-04-02, 00:38:05,VALID,918.069,VALID,0,VALID,91.0846,VALID,0,VALID,21.164,VALID,137,VALID,1.57539,
2010-04-02, 00:39:05,VALID,918.047,VALID,0,VALID,91.1379,VALID,0,VALID,21.2047,VALID,137,VALID,1.23672,
2010-04-02, 00:40:05,VALID,918.058,VALID,0,VALID,90.9855,VALID,0,VALID,21.2242,VALID,130,VALID,1.49922,
2010-04-02, 00:41:05,VALID,917.994,VALID,0,VALID,90.772,VALID,0,VALID,21.2437,VALID,129,VALID,1.68711,
2010-04-02, 00:42:05,VALID,918.009,VALID,0,VALID,90.833,VALID,0,VALID,21.2437,VALID,131,VALID,0.852344,
2010-04-02, 00:43:05,VALID,917.966,VALID,0,VALID,90.7568,VALID,0,VALID,21.2242,VALID,132,VALID,1.40625,
2010-04-02, 00:44:05,VALID,917.969,VALID,0,VALID,90.5814,VALID,0,VALID,21.2437,VALID,125,VALID,1.46484,
2010-04-02, 00:45:05,VALID,917.955,VALID,0,VALID,90.5509,VALID,0,VALID,21.2226,VALID,132,VALID,0.963672,
2010-04-02, 00:46:05,VALID,917.936,VALID,0,VALID,90.3527,VALID,0,VALID,21.2632,VALID,141,VALID,1.35117,
2010-04-02, 00:47:05,VALID,917.919,VALID,0,VALID,90.2994,VALID,0,VALID,21.2616,VALID,105,VALID,0.932422,
2010-04-02, 00:48:05,VALID,917.903,VALID,0,VALID,90.2765,VALID,0,VALID,21.2421,VALID,117,VALID,1.33281,
2010-04-02, 00:49:05,VALID,917.923,VALID,0,VALID,90.4137,VALID,0,VALID,21.2437,VALID,127,VALID,0.986328,
2010-04-02, 00:50:05,VALID,917.886,VALID,0,VALID,90.3756,VALID,0,VALID,21.2437,VALID,104,VALID,1.06602,
2010-04-02, 00:51:05,VALID,917.911,VALID,0,VALID,90.4671,VALID,0,VALID,21.2421,VALID,104,VALID,1.08203,
2010-04-02, 00:52:05,VALID,917.913,VALID,0,VALID,90.5281,VALID,0,VALID,21.2031,VALID,108,VALID,1.36914,
2010-04-02, 00:53:05,VALID,917.842,VALID,0,VALID,90.4747,VALID,0,VALID,21.2031,VALID,119,VALID,1.51016,
2010-04-02, 00:54:05,VALID,917.876,VALID,0,VALID,90.3375,VALID,0,VALID,21.2226,VALID,119,VALID,1.37148,
2010-04-02, 00:55:05,VALID,917.84,VALID,0,VALID,90.2917,VALID,0,VALID,21.2421,VALID,119,VALID,1.21602,
2010-04-02, 00:56:05,VALID,917.816,VALID,0,VALID,90.4061,VALID,0,VALID,21.2437,VALID,119,VALID,0.993359,
2010-04-02, 00:57:05,VALID,917.845,VALID,0,VALID,90.5357,VALID,0,VALID,21.2242,VALID,119,VALID,0.799609,
2010-04-02, 00:58:05,VALID,917.812,VALID,0,VALID,90.3908,VALID,0,VALID,21.2242,VALID,119,VALID,0.517578,
2010-04-02, 00:59:05,VALID,917.836,VALID,0,VALID,90.4061,VALID,0.107441,VALID,21.2421,VALID,119,VALID,0.395703,
2010-04-02, 01:00:05,VALID,917.832,VALID,0,VALID,90.3299,VALID,0,VALID,21.2421,VALID,119,VALID,0.635547,
2010-04-02, 01:01:05,VALID,917.823,VALID,0,VALID,90.4137,VALID,0.107441,VALID,21.2421,VALID,119,VALID,0,
2010-04-02, 01:02:05,VALID,917.867,VALID,0,VALID,90.3604,VALID,0,VALID,21.2616,VALID,119,VALID,0,
2010-04-02, 01:03:05,VALID,917.884,VALID,0,VALID,90.3985,VALID,0,VALID,21.2421,VALID,119,VALID,0.0472656,
2010-04-02, 01:04:05,VALID,917.873,VALID,0,VALID,90.5204,VALID,0,VALID,21.2421,VALID,119,VALID,0.0121094,
2010-04-02, 01:05:05,VALID,917.88,VALID,0,VALID,90.7644,VALID,0,VALID,21.2421,VALID,119,VALID,0.304297,
2010-04-02, 01:06:05,VALID,917.899,VALID,0,VALID,91.1303,VALID,0.107441,VALID,21.2015,VALID,119,VALID,0.304297,
2010-04-02, 01:07:05,VALID,917.888,VALID,0,VALID,91.3057,VALID,0.107441,VALID,21.164,VALID,119,VALID,0.219922,
2010-04-02, 01:08:05,VALID,917.878,VALID,0,VALID,91.5725,VALID,0.107441,VALID,21.125,VALID,119,VALID,0.0183594,
2010-04-02, 01:09:05,VALID,917.851,VALID,0,VALID,91.6258,VALID,0,VALID,21.125,VALID,119,VALID,0,
2010-04-02, 01:10:05,VALID,917.868,VALID,0,VALID,91.7631,VALID,0.107441,VALID,21.1055,VALID,119,VALID,0.369922,
2010-04-02, 01:11:05,VALID,917.831,VALID,0,VALID,91.9308,VALID,0,VALID,21.1055,VALID,119,VALID,0.367969,
2010-04-02, 01:12:05,VALID,917.806,VALID,0,VALID,92.0756,VALID,0.107441,VALID,21.0649,VALID,119,VALID,0.323828,
2010-04-02, 01:13:05,VALID,917.785,VALID,0,VALID,92.2128,VALID,0.107441,VALID,21.0454,VALID,119,VALID,0.213672,
2010-04-02, 01:14:05,VALID,917.696,VALID,0,VALID,92.2205,VALID,0,VALID,21.0275,VALID,119,VALID,0,
2010-04-02, 01:15:05,VALID,917.691,VALID,0,VALID,92.1519,VALID,0,VALID,20.969,VALID,119,VALID,0,
2010-04-02, 01:16:05,VALID,917.654,VALID,0,VALID,92.3348,VALID,0,VALID,20.9495,VALID,119,VALID,0,
2010-04-02, 01:17:05,VALID,917.653,VALID,0,VALID,92.3424,VALID,0,VALID,20.9316,VALID,119,VALID,0,
2010-04-02, 01:18:05,VALID,917.633,VALID,0,VALID,92.3958,VALID,0,VALID,20.8925,VALID,119,VALID,0.457031,
2010-04-02, 01:19:05,VALID,917.614,VALID,0,VALID,92.3043,VALID,0,VALID,20.912,VALID,119,VALID,0.45625,
2010-04-02, 01:20:05,VALID,917.585,VALID,0,VALID,92.2281,VALID,0,VALID,20.891,VALID,119,VALID,0.34375,
2010-04-02, 01:21:05,VALID,917.562,VALID,0,VALID,92.2738,VALID,0,VALID,20.9316,VALID,119,VALID,0.307031,
2010-04-02, 01:22:05,VALID,917.557,VALID,0,VALID,92.0299,VALID,0,VALID,20.9511,VALID,119,VALID,0.349219,
2010-04-02, 01:23:05,VALID,917.542,VALID,0,VALID,91.8698,VALID,0,VALID,20.9495,VALID,119,VALID,0.416406,
2010-04-02, 01:24:05,VALID,917.542,VALID,0,VALID,91.8164,VALID,0,VALID,21.0096,VALID,119,VALID,0.425,
2010-04-02, 01:25:05,VALID,917.526,VALID,0,VALID,91.8545,VALID,0,VALID,20.9706,VALID,119,VALID,0.475391,
2010-04-02, 01:26:05,VALID,917.495,VALID,0,VALID,91.885,VALID,0,VALID,20.93,VALID,119,VALID,0.583203,
2010-04-02, 01:27:05,VALID,917.479,VALID,0,VALID,91.8317,VALID,0,VALID,20.9316,VALID,119,VALID,0.469141,
2010-04-02, 01:28:05,VALID,917.446,VALID,0,VALID,91.8545,VALID,0,VALID,20.9706,VALID,119,VALID,0.189453,
2010-04-02, 01:29:05,VALID,917.431,VALID,0,VALID,91.9003,VALID,0.107441,VALID,20.9495,VALID,119,VALID,0.430078,
2010-04-02, 01:30:05,VALID,917.404,VALID,0,VALID,91.8393,VALID,0.107441,VALID,20.9706,VALID,119,VALID,0.467187,
2010-04-02, 01:31:05,VALID,917.398,VALID,0,VALID,91.9536,VALID,0.107441,VALID,20.969,VALID,119,VALID,0.283203,
2010-04-02, 01:32:05,VALID,917.41,VALID,0,VALID,91.8012,VALID,0,VALID,20.9901,VALID,119,VALID,0.285547,
2010-04-02, 01:33:05,VALID,917.359,VALID,0,VALID,91.9918,VALID,0.107441,VALID,20.9885,VALID,119,VALID,0.416797,
2010-04-02, 01:34:05,VALID,917.338,VALID,0,VALID,92.0832,VALID,0.107441,VALID,20.969,VALID,119,VALID,0,
2010-04-02, 01:35:05,VALID,917.306,VALID,0,VALID,92.1442,VALID,0.107441,VALID,20.969,VALID,119,VALID,0.00273437,
2010-04-02, 01:36:05,VALID,917.275,VALID,0,VALID,92.0909,VALID,0.107441,VALID,20.9495,VALID,119,VALID,0.0820313,
2010-04-02, 01:37:05,VALID,917.233,VALID,0,VALID,92.129,VALID,0.107441,VALID,20.9495,VALID,119,VALID,0.340234,
2010-04-02, 01:38:05,VALID,917.251,VALID,0,VALID,92.2738,VALID,0.107441,VALID,20.9089,VALID,119,VALID,0,
2010-04-02, 01:39:05,VALID,917.228,VALID,0,VALID,92.2052,VALID,0,VALID,20.9105,VALID,119,VALID,0.258984,
2010-04-02, 01:40:05,VALID,917.206,VALID,0,VALID,92.2967,VALID,0.107441,VALID,20.891,VALID,119,VALID,0,
2010-04-02, 01:41:05,VALID,917.16,VALID,0,VALID,92.5406,VALID,0,VALID,20.8519,VALID,119,VALID,0,
2010-04-02, 01:42:05,VALID,917.154,VALID,0,VALID,92.7541,VALID,0,VALID,20.7934,VALID,119,VALID,0,
2010-04-02, 01:43:05,VALID,917.144,VALID,0,VALID,92.8913,VALID,0,VALID,20.7755,VALID,119,VALID,0.253125,
2010-04-02, 01:44:05,VALID,917.132,VALID,0,VALID,92.9599,VALID,0.107441,VALID,20.7349,VALID,119,VALID,0.267578,
2010-04-02, 01:45:05,VALID,917.138,VALID,0,VALID,93.0514,VALID,0.107441,VALID,20.7154,VALID,119,VALID,0.268359,
2010-04-02, 01:46:05,VALID,917.128,VALID,0,VALID,93.1124,VALID,0.107441,VALID,20.6569,VALID,119,VALID,0.154687,
2010-04-02, 01:47:05,VALID,917.143,VALID,0,VALID,93.2496,VALID,0.107441,VALID,20.6179,VALID,119,VALID,0,
2010-04-02, 01:48:05,VALID,917.101,VALID,0,VALID,93.425,VALID,0,VALID,20.5789,VALID,119,VALID,0,
2010-04-02, 01:49:05,VALID,917.088,VALID,0,VALID,93.5927,VALID,0.107441,VALID,20.5789,VALID,119,VALID,0,
2010-04-02, 01:50:05,VALID,917.086,VALID,0,VALID,93.7451,VALID,0,VALID,20.5789,VALID,119,VALID,0,
2010-04-02, 01:51:05,VALID,917.049,VALID,0,VALID,93.8061,VALID,0.107441,VALID,20.5789,VALID,119,VALID,0,
2010-04-02, 01:52:05,VALID,917.041,VALID,0,VALID,93.8366,VALID,0.107441,VALID,20.5789,VALID,119,VALID,0,
2010-04-02, 01:53:05,VALID,917.017,VALID,0,VALID,93.5546,VALID,0.107441,VALID,20.5789,VALID,119,VALID,0,
2010-04-02, 01:54:05,VALID,916.979,VALID,0,VALID,93.4402,VALID,0.107441,VALID,20.5399,VALID,119,VALID,0,
2010-04-02, 01:55:05,VALID,916.947,VALID,0,VALID,93.7909,VALID,0.107441,VALID,20.4618,VALID,119,VALID,0.75625,
2010-04-02, 01:56:05,VALID,916.923,VALID,0,VALID,94.1034,VALID,0.107441,VALID,20.3643,VALID,119,VALID,0.684375,
2010-04-02, 01:57:05,VALID,916.88,VALID,0,VALID,94.5304,VALID,0.107441,VALID,20.3643,VALID,119,VALID,0.350391,
2010-04-02, 01:58:05,VALID,916.87,VALID,0,VALID,94.66,VALID,0,VALID,20.3253,VALID,119,VALID,0,
2010-04-02, 01:59:05,VALID,916.854,VALID,0,VALID,94.7819,VALID,0.107441,VALID,20.3253,VALID,119,VALID,0,
2010-04-02, 02:00:05,VALID,916.833,VALID,0,VALID,94.7743,VALID,0,VALID,20.3253,VALID,119,VALID,0,
2010-04-02, 02:01:05,VALID,916.819,VALID,0,VALID,94.6981,VALID,0,VALID,20.3253,VALID,119,VALID,0,
2010-04-02, 02:02:05,VALID,916.811,VALID,0,VALID,94.6295,VALID,0,VALID,20.3058,VALID,119,VALID,0,
2010-04-02, 02:03:05,VALID,916.781,VALID,0,VALID,94.4008,VALID,0,VALID,20.2668,VALID,119,VALID,0,
2010-04-02, 02:04:05,VALID,916.741,VALID,0,VALID,94.4389,VALID,0.107441,VALID,20.2278,VALID,119,VALID,0,
2010-04-02, 02:05:05,VALID,916.719,VALID,0,VALID,94.599,VALID,0,VALID,20.2083,VALID,119,VALID,0,
2010-04-02, 02:06:05,VALID,916.701,VALID,0,VALID,94.6905,VALID,0.107441,VALID,20.2083,VALID,119,VALID,0,
2010-04-02, 02:07:05,VALID,916.676,VALID,0,VALID,94.7286,VALID,0.107441,VALID,20.2083,VALID,119,VALID,0,
2010-04-02, 02:08:05,VALID,916.691,VALID,0,VALID,94.6295,VALID,0,VALID,20.1888,VALID,119,VALID,0,
2010-04-02, 02:09:05,VALID,916.688,VALID,0,VALID,94.4999,VALID,0.107441,VALID,20.1693,VALID,119,VALID,0,
2010-04-02, 02:10:05,VALID,916.669,VALID,0,VALID,94.7743,VALID,0,VALID,20.1903,VALID,119,VALID,0,
2010-04-02, 02:11:05,VALID,916.665,VALID,0,VALID,94.9268,VALID,0,VALID,20.1888,VALID,119,VALID,0.00351562,
2010-04-02, 02:12:05,VALID,916.642,VALID,0,VALID,95.1021,VALID,0.107441,VALID,20.2278,VALID,119,VALID,0.433203,
2010-04-02, 02:13:05,VALID,916.657,VALID,0,VALID,95.3156,VALID,0,VALID,20.2458,VALID,119,VALID,0.787891,
2010-04-02, 02:14:04,VALID,916.667,VALID,0,VALID,95.3537,VALID,0,VALID,20.2879,VALID,119,VALID,0.688672,
2010-04-02, 02:15:04,VALID,916.695,VALID,0,VALID,95.4375,VALID,0,VALID,20.2684,VALID,119,VALID,0.909375,
2010-04-02, 02:16:04,VALID,916.709,VALID,0,VALID,95.6205,VALID,0,VALID,20.2473,VALID,119,VALID,0.541016,
2010-04-02, 02:17:04,VALID,916.713,VALID,0,VALID,95.7654,VALID,0,VALID,20.2879,VALID,119,VALID,0.485547,
2010-04-02, 02:18:04,VALID,916.707,VALID,0,VALID,95.8645,VALID,0,VALID,20.2684,VALID,119,VALID,0.374609,
2010-04-02, 02:19:04,VALID,916.683,VALID,0,VALID,95.9941,VALID,0,VALID,20.2473,VALID,119,VALID,0.506641,
2010-04-02, 02:20:04,VALID,916.717,VALID,0,VALID,96.1008,VALID,0,VALID,20.2668,VALID,119,VALID,0.749219,
2010-04-02, 02:21:04,VALID,916.716,VALID,0,VALID,96.2151,VALID,0,VALID,20.2668,VALID,119,VALID,0.623438,
2010-04-02, 02:22:04,VALID,916.702,VALID,0,VALID,96.238,VALID,0,VALID,20.2473,VALID,119,VALID,0.35625,
2010-04-02, 02:23:04,VALID,916.694,VALID,0,VALID,96.3142,VALID,0,VALID,20.2684,VALID,119,VALID,0.63125,
2010-04-02, 02:24:04,VALID,916.711,VALID,0,VALID,96.36,VALID,0,VALID,20.2684,VALID,119,VALID,0.629297,
2010-04-02, 02:25:04,VALID,916.68,VALID,0,VALID,96.4286,VALID,0,VALID,20.2879,VALID,119,VALID,0.402344,
2010-04-02, 02:26:04,VALID,916.683,VALID,0,VALID,96.4743,VALID,0,VALID,20.2684,VALID,119,VALID,0.474609,
2010-04-02, 02:27:04,VALID,916.711,VALID,0,VALID,96.5048,VALID,0,VALID,20.2879,VALID,119,VALID,0.280469,
2010-04-02, 02:28:04,VALID,916.688,VALID,0,VALID,96.5582,VALID,0,VALID,20.2684,VALID,119,VALID,0.454297,
2010-04-02, 02:29:04,VALID,916.724,VALID,0,VALID,96.6115,VALID,0,VALID,20.2668,VALID,119,VALID,0.510938,
2010-04-02, 02:30:04,VALID,916.721,VALID,0,VALID,96.6192,VALID,0,VALID,20.2668,VALID,119,VALID,0.718359,
2010-04-02, 02:31:04,VALID,916.721,VALID,0,VALID,96.6954,VALID,0,VALID,20.3074,VALID,119,VALID,0.396484,
2010-04-02, 02:32:04,VALID,916.739,VALID,0,VALID,96.6954,VALID,0,VALID,20.2863,VALID,119,VALID,0.349219,
2010-04-02, 02:33:04,VALID,916.755,VALID,0,VALID,96.7564,VALID,0,VALID,20.3058,VALID,119,VALID,0.171875,
2010-04-02, 02:34:04,VALID,916.764,VALID,0,VALID,96.7869,VALID,0,VALID,20.3269,VALID,119,VALID,0.285937,
2010-04-02, 02:35:04,VALID,916.743,VALID,0,VALID,96.7716,VALID,0,VALID,20.3058,VALID,119,VALID,0.371875,
2010-04-02, 02:36:04,VALID,916.748,VALID,0,VALID,96.7716,VALID,0,VALID,20.3058,VALID,119,VALID,0.683594,
2010-04-02, 02:37:04,VALID,916.754,VALID,0,VALID,96.7869,VALID,0,VALID,20.3074,VALID,119,VALID,0.505859,
2010-04-02, 02:38:04,VALID,916.76,VALID,0,VALID,96.7335,VALID,0,VALID,20.2668,VALID,119,VALID,0.400781,
2010-04-02, 02:39:04,VALID,916.745,VALID,0,VALID,96.7488,VALID,0,VALID,20.2684,VALID,119,VALID,0.209766,
2010-04-02, 02:40:04,VALID,916.749,VALID,0,VALID,96.7183,VALID,0,VALID,20.2098,VALID,119,VALID,0.352734,
2010-04-02, 02:41:04,VALID,916.732,VALID,0,VALID,96.7335,VALID,0,VALID,20.1888,VALID,119,VALID,0.621875,
2010-04-02, 02:42:04,VALID,916.71,VALID,0,VALID,96.8174,VALID,0,VALID,20.2098,VALID,119,VALID,0.605469,
2010-04-02, 02:43:04,VALID,916.686,VALID,0,VALID,96.886,VALID,0,VALID,20.2083,VALID,119,VALID,0.302344,
2010-04-02, 02:44:04,VALID,916.68,VALID,0,VALID,96.8707,VALID,0,VALID,20.2278,VALID,119,VALID,0.285547,
2010-04-02, 02:45:04,VALID,916.645,VALID,0,VALID,96.9012,VALID,0.107441,VALID,20.2278,VALID,119,VALID,0.516016,
2010-04-02, 02:46:04,VALID,916.633,VALID,0,VALID,96.9317,VALID,0,VALID,20.2278,VALID,119,VALID,0.572266,
2010-04-02, 02:47:04,VALID,916.628,VALID,0,VALID,96.9622,VALID,0.107441,VALID,20.2668,VALID,119,VALID,0.390625,
2010-04-02, 02:48:04,VALID,916.633,VALID,0,VALID,96.9775,VALID,0,VALID,20.3074,VALID,119,VALID,0.291016,
2010-04-02, 02:49:04,VALID,916.608,VALID,0,VALID,96.9622,VALID,0,VALID,20.2863,VALID,119,VALID,0.475,
2010-04-02, 02:50:04,VALID,916.657,VALID,0,VALID,97.0003,VALID,0,VALID,20.3074,VALID,119,VALID,0.419141,
2010-04-02, 02:51:04,VALID,916.641,VALID,0,VALID,96.9851,VALID,0,VALID,20.2863,VALID,119,VALID,0.629687,
2010-04-02, 02:52:04,VALID,916.649,VALID,0,VALID,96.9851,VALID,0,VALID,20.2668,VALID,119,VALID,0.596094,
2010-04-02, 02:53:04,VALID,916.621,VALID,0,VALID,96.9775,VALID,0,VALID,20.2668,VALID,119,VALID,0.268359,
2010-04-02, 02:54:04,VALID,916.626,VALID,0,VALID,97.0003,VALID,0,VALID,20.2668,VALID,119,VALID,0.177734,
2010-04-02, 02:55:04,VALID,916.621,VALID,0,VALID,97.0232,VALID,0,VALID,20.2863,VALID,119,VALID,0.321094,
2010-04-02, 02:56:04,VALID,916.631,VALID,0,VALID,97.0461,VALID,0,VALID,20.2863,VALID,119,VALID,0.260156,
2010-04-02, 02:57:04,VALID,916.627,VALID,0,VALID,97.0308,VALID,0.107441,VALID,20.2863,VALID,119,VALID,0.000390625,
2010-04-02, 02:58:04,VALID,916.622,VALID,0,VALID,97.0537,VALID,0,VALID,20.3058,VALID,119,VALID,0.586719,
2010-04-02, 02:59:04,VALID,916.644,VALID,0,VALID,97.0537,VALID,0,VALID,20.3269,VALID,119,VALID,0.538281,
2010-04-02, 03:00:04,VALID,916.671,VALID,0,VALID,97.0385,VALID,0,VALID,20.3058,VALID,119,VALID,0.5,
2010-04-02, 03:01:04,VALID,916.651,VALID,0,VALID,97.0537,VALID,0,VALID,20.3058,VALID,119,VALID,0.573828,
2010-04-02, 03:02:04,VALID,916.649,VALID,0,VALID,96.9775,VALID,0,VALID,20.2684,VALID,119,VALID,0.413281,
2010-04-02, 03:03:04,VALID,916.648,VALID,0,VALID,96.9927,VALID,0,VALID,20.2083,VALID,119,VALID,0.556641,
2010-04-02, 03:04:04,VALID,916.633,VALID,0,VALID,97.0156,VALID,0,VALID,20.2278,VALID,119,VALID,0.655859,
2010-04-02, 03:05:04,VALID,916.644,VALID,0,VALID,97.0308,VALID,0,VALID,20.2489,VALID,119,VALID,0.795703,
2010-04-02, 03:06:04,VALID,916.65,VALID,0,VALID,97.0613,VALID,0,VALID,20.2489,VALID,119,VALID,0.455859,
2010-04-02, 03:07:04,VALID,916.614,VALID,0,VALID,97.0156,VALID,0.107441,VALID,20.2098,VALID,119,VALID,0.776953,
2010-04-02, 03:08:04,VALID,916.609,VALID,0,VALID,97.0232,VALID,0,VALID,20.1903,VALID,119,VALID,0.558984,
2010-04-02, 03:09:04,VALID,916.576,VALID,0,VALID,97.0232,VALID,0,VALID,20.1708,VALID,119,VALID,0.645312,
2010-04-02, 03:10:04,VALID,916.598,VALID,0,VALID,97.0385,VALID,0,VALID,20.1303,VALID,119,VALID,0.255469,
2010-04-02, 03:11:04,VALID,916.579,VALID,0,VALID,97.0766,VALID,0,VALID,20.1513,VALID,119,VALID,0,
2010-04-02, 03:12:04,VALID,916.553,VALID,0,VALID,97.0842,VALID,0,VALID,20.1498,VALID,119,VALID,0,
2010-04-02, 03:13:04,VALID,916.583,VALID,0,VALID,97.0918,VALID,0,VALID,20.1498,VALID,119,VALID,0,
2010-04-02, 03:14:04,VALID,916.554,VALID,0,VALID,97.0994,VALID,0.107441,VALID,20.1498,VALID,119,VALID,0,
2010-04-02, 03:15:04,VALID,916.557,VALID,0,VALID,97.0842,VALID,0,VALID,20.1498,VALID,119,VALID,0.0464844,
2010-04-02, 03:16:04,VALID,916.548,VALID,0,VALID,97.1147,VALID,0,VALID,20.1903,VALID,119,VALID,0.162891,
2010-04-02, 03:17:04,VALID,916.579,VALID,0,VALID,97.1223,VALID,0,VALID,20.1693,VALID,119,VALID,0.146094,
2010-04-02, 03:18:04,VALID,916.563,VALID,0,VALID,97.1299,VALID,0,VALID,20.1498,VALID,119,VALID,0.417188,
2010-04-02, 03:19:04,VALID,916.586,VALID,0,VALID,97.1299,VALID,0.107441,VALID,20.1498,VALID,119,VALID,0.279297,
2010-04-02, 03:20:04,VALID,916.578,VALID,0,VALID,97.1528,VALID,0,VALID,20.1498,VALID,119,VALID,0.578516,
2010-04-02, 03:21:04,VALID,916.573,VALID,0,VALID,97.1376,VALID,0.107441,VALID,20.1498,VALID,119,VALID,0.320703,
2010-04-02, 03:22:04,VALID,916.572,VALID,0,VALID,97.1452,VALID,0,VALID,20.1693,VALID,119,VALID,0.370313,
2010-04-02, 03:23:04,VALID,916.556,VALID,0,VALID,97.1604,VALID,0,VALID,20.1498,VALID,119,VALID,0.341797,
2010-04-02, 03:24:04,VALID,916.552,VALID,0,VALID,97.1604,VALID,0.107441,VALID,20.1498,VALID,119,VALID,0.0230469,
2010-04-02, 03:25:04,VALID,916.492,VALID,0,VALID,97.1604,VALID,0,VALID,20.1513,VALID,119,VALID,0.147266,
2010-04-02, 03:26:04,VALID,916.445,VALID,0,VALID,97.1604,VALID,0,VALID,20.1303,VALID,119,VALID,0.180859,
2010-04-02, 03:27:04,VALID,916.44,VALID,0,VALID,97.1681,VALID,0.107441,VALID,20.1303,VALID,119,VALID,0.419922,
2010-04-02, 03:28:04,VALID,916.418,VALID,0,VALID,97.1833,VALID,0.107441,VALID,20.1303,VALID,119,VALID,0.712109,
2010-04-02, 03:29:04,VALID,916.408,VALID,0,VALID,97.1757,VALID,0.107441,VALID,20.1498,VALID,119,VALID,0.263672,
2010-04-02, 03:30:04,VALID,916.381,VALID,0,VALID,97.1757,VALID,0,VALID,20.1498,VALID,119,VALID,0.561719,
2010-04-02, 03:31:04,VALID,916.357,VALID,0,VALID,97.2062,VALID,0.107441,VALID,20.1303,VALID,119,VALID,0.669141,
2010-04-02, 03:32:04,VALID,916.348,VALID,0,VALID,97.1986,VALID,0.107441,VALID,20.1318,VALID,119,VALID,0.873047,
2010-04-02, 03:33:04,VALID,916.319,VALID,0,VALID,97.1833,VALID,0.107441,VALID,20.1108,VALID,119,VALID,0.633984,
2010-04-02, 03:34:04,VALID,916.306,VALID,0,VALID,97.1833,VALID,0.107441,VALID,20.0913,VALID,119,VALID,0.772266,
2010-04-02, 03:35:04,VALID,916.307,VALID,0,VALID,97.2062,VALID,0.107441,VALID,20.0718,VALID,119,VALID,0.537891,
2010-04-02, 03:36:04,VALID,916.297,VALID,0,VALID,97.1986,VALID,0,VALID,20.0928,VALID,119,VALID,0.292969,
2010-04-02, 03:37:04,VALID,916.302,VALID,0,VALID,97.2138,VALID,0,VALID,20.0928,VALID,119,VALID,0.00351562,
2010-04-02, 03:38:04,VALID,916.248,VALID,0,VALID,97.2062,VALID,0,VALID,20.0718,VALID,119,VALID,0.320313,
2010-04-02, 03:39:04,VALID,916.278,VALID,0,VALID,97.229,VALID,0.107441,VALID,20.0718,VALID,119,VALID,0.466016,
2010-04-02, 03:40:04,VALID,916.276,VALID,0,VALID,97.229,VALID,0,VALID,20.0733,VALID,119,VALID,0.277344,
2010-04-02, 03:41:04,VALID,916.283,VALID,0,VALID,97.2443,VALID,0,VALID,20.0733,VALID,119,VALID,0.352344,
2010-04-02, 03:42:04,VALID,916.267,VALID,0,VALID,97.2214,VALID,0,VALID,20.0523,VALID,119,VALID,0.19375,
2010-04-02, 03:43:04,VALID,916.28,VALID,0,VALID,97.2367,VALID,0,VALID,20.0523,VALID,119,VALID,0.193359,